Home   Wetter   Kazakhstan   Qaraghandy   Vergangene Wochen
Flagge von Kazakhstan

Wetter-Rückblick Qaraghandy, Kazakhstan – gestern, letzte Wochen & Monate

Aktuell:-10 °C. Sonnig. (Wetterstation: Qaraghandy, Kazakhstan). Zur Wetterübersicht

Wetter-Rückblick für Qaraghandy — Graph

Temperatur gestern in Qaraghandy

Höchsttemperatur gestern: -10 °C (um 14:30 Uhr)
Tiefsttemperatur gestern: -20 °C (um 00:00 Uhr)
Durchschnittstemperatur gestern: -13 °C

Tiefst- und Höchstwerte der vergangenen Wochen

 TemperaturLuftfeuchteDruck
Höchst3 °C (16. Jan, 13:30)93% (14. Jan, 21:30)1031 hPa (14. Jan, 21:30)
Tiefst-22 °C (21. Jan, 08:30)62% (16. Jan, 04:00)993 hPa (15. Jan, 08:30)
Durchschnitt-12 °C81%1019 hPa
* Abgerufen 12. Jan 13:00 — 27. Jan 13:00, Qaraghandy. Wetterdaten von CustomWeather, © 2016

Hinweis: Spiegelt tatsächliche Extremwerte möglicherweise nicht korrekt wider, wenn diese zwischen den Ableseintervallen aufgetreten sind.

Qaraghandy Wetterrückblick

Nach rechts scrollen
 WetterbedingungenBioklima  
Uhrzeit TempWetterWind LuftfeuchteBarometerSicht
13:00
Do, 27. Jan
-12 °CSonnig.2 km/h72%1029 hPa16 km
12:30-12 °CSonnig.2 km/h72%1029 hPa16 km
12:00-13 °CSonnig.Windstill78%1029 hPa16 km
11:30-15 °CSonnig.2 km/h85%1029 hPa16 km
11:00-15 °CSonnig.2 km/h78%1029 hPa16 km
10:30-17 °CSonnig.Windstill78%1029 hPa16 km
10:00-18 °CSonnig.Windstill78%1030 hPa16 km
09:30-19 °CHeiter.2 km/h84%1029 hPa16 km
09:00-21 °CHeiter.2 km/h84%1029 hPa16 km
08:30-21 °CHeiter.2 km/h77%1029 hPa16 km
08:00-21 °CHeiter.6 km/h84%1029 hPa16 km
07:30-20 °CHeiter.6 km/h77%1029 hPa16 km
07:00-20 °CHeiter.6 km/h77%1029 hPa16 km
06:30-18 °CHeiter.2 km/h78%1029 hPa16 km
06:00-19 °CHeiter.2 km/h84%1029 hPa16 km
05:30-19 °CHeiter.6 km/h84%1028 hPa16 km
05:00-19 °CHeiter.6 km/h84%1029 hPa16 km
04:30-19 °CVorüberziehende Wolken.6 km/h84%1029 hPak.A.
04:00-18 °CHeiter.6 km/h78%1029 hPa16 km
03:30-17 °CHeiter.13 km/h85%1029 hPa16 km
03:00-16 °CVorüberziehende Wolken.9 km/h78%1028 hPa9 km
02:30-17 °CVorüberziehende Wolken.9 km/h85%1028 hPa9 km
02:00-16 °CVorüberziehende Wolken.6 km/h85%1029 hPa9 km
01:30-16 °CVorüberziehende Wolken.9 km/h85%1029 hPa9 km
01:00-14 °CVorüberziehende Wolken.13 km/h85%1029 hPa9 km
00:30-14 °CTeilweise bewölkt.9 km/h85%1029 hPa6 km
00:00-14 °CVorüberziehende Wolken.13 km/h78%1028 hPa7 km
23:30
Mi, 26. Jan
-14 °CVorüberziehende Wolken.13 km/h85%1028 hPak.A.
23:00-13 °CVorüberziehende Wolken.9 km/h78%1028 hPak.A.
22:30-13 °CVorüberziehende Wolken.9 km/h85%1028 hPak.A.
22:00-13 °CVorüberziehende Wolken.17 km/h78%1028 hPak.A.
21:30-13 °CVorüberziehende Wolken.17 km/h78%1028 hPa9 km
21:18-13 °CVorüberziehende Wolken.20 km/h78%1028 hPa8 km
21:00-13 °CVorüberziehende Wolken.24 km/h78%1028 hPak.A.
20:30-13 °CVorüberziehende Wolken.20 km/h78%1028 hPak.A.
20:00-14 °CVorüberziehende Wolken.17 km/h85%1028 hPak.A.
19:30-15 °CVorüberziehende Wolken.9 km/h85%1028 hPak.A.
19:00-14 °CVorüberziehende Wolken.9 km/h85%1028 hPak.A.
18:00-12 °CVorüberziehende Wolken.17 km/h79%1027 hPak.A.
17:30-11 °CVorüberziehende Wolken.17 km/h79%1027 hPak.A.
17:00-10 °CSonnig.17 km/h79%1026 hPa16 km
16:30-10 °CSonnig.24 km/h79%1026 hPa16 km
16:00-10 °CSonnig.24 km/h79%1026 hPa16 km
15:30-10 °CSonnig.20 km/h73%1026 hPa16 km
15:00-10 °CVorüberziehende Wolken.20 km/h79%1026 hPak.A.
14:30-10 °CVorüberziehende Wolken.24 km/h73%1026 hPak.A.
14:00-11 °CVorüberziehende Wolken.20 km/h79%1026 hPak.A.
Wetterdaten von CustomWeather, © 2022

Wetter-Übersicht